{"data":{"norad_id":43075,"epoch":"2026-09-20T00:16:23.201760Z","epoch_age_seconds":57638,"freshness":"FRESH","line1":"1 43075U 17083F   26263.01137965 -.00000025  00000+0 -16147-4 0  9990","line2":"2 43075  86.3913 282.4246 0002123  90.0448 270.0991 14.34217125457691","mean_motion":14.34217125,"eccentricity":0.0002123,"inclination_deg":86.3913,"raan_deg":282.4246,"arg_perigee_deg":90.0448,"mean_anomaly_deg":270.0991,"bstar":-1.6147e-5,"rev_number":45769,"period_min":100.4032077779,"perigee_km":776.1500555838,"apogee_km":779.18841091044,"semimajor_km":7155.8062332471,"source":"CELESTRAK","updated_at":"2026-09-20T09:00:36.327378Z"}}